Location: Haliburton Scout Reserve
(45.0900°N, 78.3200°W)
Time: 13:43:14
(UTC-04:00)

XW-2A - Visible Passes

Search period start: 17 May 2022 00:00
Search period end: 27 May 2022 00:00
Orbit: 404 x 416 km, 97.2° (Epoch: 17 May)

Date Brightness Start Highest point End Pass type
(mag) Time Alt. Az. Time Alt. Az. Time Alt. Az.
17 May ? 22:28:16 20° SSW 22:30:09 41° W 22:33:14 10° NNW visible
18 May ? 21:40:44 14° SE 21:43:10 39° ENE 21:46:12 10° N visible
18 May ? 23:14:19 10° WSW 23:15:21 11° W 23:16:23 10° WNW visible
19 May ? 22:26:00 19° SSW 22:28:01 44° W 22:31:07 10° NNW visible
20 May ? 21:38:23 13° SE 21:40:57 36° ENE 21:43:56 10° N visible
20 May ? 23:11:48 10° WSW 23:13:06 12° W 23:14:25 10° WNW visible
21 May ? 22:23:33 18° S 22:25:41 48° W 22:28:49 10° NNW visible
22 May ? 21:35:52 11° SE 21:38:33 33° ENE 21:41:29 10° N visible
22 May ? 23:09:08 10° WSW 23:10:40 13° W 23:12:12 10° WNW visible
23 May ? 22:20:56 17° S 22:23:10 53° W 22:26:20 10° NNW visible
24 May ? 21:33:09 10° SE 21:35:58 31° ENE 21:38:50 10° N visible
24 May ? 23:06:18 10° SW 23:08:03 14° W 23:09:47 10° WNW visible
25 May ? 22:18:07 16° S 22:20:29 59° W 22:23:38 10° NNW visible
26 May ? 21:30:25 10° SE 21:33:12 28° ENE 21:36:00 10° N visible
26 May ? 23:03:18 10° SW 23:05:14 15° W 23:07:10 10° NW visible
